Location: Newark
(55.8429°N, 38.1995°E)
Time: 22:27:24
(UTC+00:00)

ISS - Pass Details

Date: 01 November 2019
Orbit: 412 x 421 km, 51.6° (Epoch: 23 November)

Event Time Altitude Azimuth Distance (km) Brightness Sun altitude
Exits shadow 03:11:45 14° 242° (WSW) 1,290 -1.8 -11.7°
Maximum altitude 03:14:22 40° 176° (S) 641 -2.7 -11.3°
Drops below altitude 10° 03:17:34 10° 105° (ESE) 1,508 0.6 -10.9°
Sets 03:19:43 0° 98° (E) 2,371 2.4 -10.6°
